www.pogodaiklimat.ru

Погода и климат >> Архив погоды >> Россия >> Чукотка >> Уэлен


АРХИВ ПОГОДЫ в Уэлене

Время (UTC), дата Ветер
(напр.,м/с)
 
Видим.   Явления Облачность Т
(С)
Тd
(С)
f
(%)
Тe
(С)
Тes
(С)
Комфортность P
(гПа)
Po
(гПа)
Тmin
(С)
Tmax
(С)
R
(мм)
R24
(мм)
S
(см)
09 17.04 СЗ 8
{10}
28 км позёмок 10/10 300 м
[St]
-12.8 -16.3 75 -23 -23 1011.8 1010.8
12 17.04 С 8
{13}
8000 м слаб. ливневой снег {метель} 10/10 300 м
[Cb cap]
-12.1 -15.6 75 -22 -22 1011.7 1010.8
15 17.04 С 10-11
{14}
8000 м слаб. ливневой снег {метель} 10/10 300 м
[Cb cap]
-11.9 -15.4 75 -23 -23 1011.1 1010.2
18 17.04 С 11-12
{14}
6000 м метель {ливн. осадки} 10/10 300 м
[St]
-11.6 -15.1 75 -23 -23 1012.6 1011.7 -13.8 0.2 63
21 17.04 С 11-13
{14}
4100 м слаб. ливневой снег {метель} 10/10 300 м
[Cb cap]
-10.6 -14.2 75 -22 -22 1013.6 1012.7
00 18.04 С 11-13
{14}
2200 м слаб. ливневой снег {метель} 10/10 300 м
[Cb cap]
-11.0 -14.6 75 -22 -22 1014.4 1013.5
03 18.04 С 11-12
{14}
2300 м слаб. ливневой снег {метель} 10/10 300 м
[Cb cap]
-10.9 -14.5 75 -22 -22 1014.6 1013.7
06 18.04 С 13-14
{16}
6000 м метель {ливн. осадки} 10/10 300 м
[Cu Sc]
-10.5 -14.1 75 -22 -22 1014.7 1013.8 -10.5 0.2
09 18.04 С 11-13
{16}
5000 м слаб. ливневой снег {метель} 10/10 300 м
[Cb cap]
-10.4 -13.2 80 -22 -22 1014.7 1013.8
12 18.04 С 12-12
{16}
5000 м слаб. ливневой снег {метель} 10/10 300 м
[Cb cap]
-10.4 -13.2 80 -22 -22 1015.1 1014.2
15 18.04 С 11-13
{16}
8000 м слаб. ливневой снег {метель} 10/10 300 м
[Cb cap]
-12.0 -14.7 80 -23 -23 1015.7 1014.8
18 18.04 С 10-12
{15}
18 км сильный позёмок {ливн. осадки} 10/10 300 м
[Cu Sc]
-13.2 -16.7 75 -25 -25 1015.5 1014.6 -13.2 0.2 58
21 18.04 С 8
{14}
20 км позёмок 9/9 300 м
[Cu Sc]
-13.3 -16.7 76 -24 -24 1015.8 1014.8
00 19.04 СЗ 8
{13}
20 км позёмок 9/9 300 м
[Cu Sc]
-13.1 -17.4 70 -23 -23 1015.6 1014.6
03 19.04 С 8
{13}
20 км позёмок 9/9 300 м
[Cu Sc]
-12.1 -16.4 70 -22 -22 1014.6 1013.7
06 19.04 С 6
{11}
20 км позёмок {ливн. осадки} 9/9 300 м
[Cu Sc]
-12.3 -15.8 75 -21 -21 1013.7 1012.8 -12.0 0.0
09 19.04 С 6
{8}
9000 м слаб. ливневой снег {метель} 10/10 300 м
[Cb cap]
-13.2 -16.7 75 -22 -22 1013.3 1012.3
12 19.04 С 6
{8}
9000 м слаб. ливневой снег {метель} 10/10 300 м
[Cb cap]
-14.0 -17.5 75 -23 -23 1012.9 1011.9
15 19.04 С 4
{8}
9000 м слаб. ливневой снег {метель} 10/10 300 м
[Cb cap]
-14.4 -17.9 75 -22 -22 1012.6 1011.6
18 19.04 С 6
{8}
20 км позёмок {ливн. осадки} 10/10 300 м
[Cu Sc]
-14.6 -18.1 75 -24 -24 1012.5 1011.5 -14.6 0.2 56
21 19.04 С 6
{8}
18 км позёмок {ливн. осадки} 10/10 300 м
[Cu Sc]
-14.4 -17.9 75 -24 -24 1013.3 1012.3
00 20.04 С 6
{8}
20 км позёмок {ливн. осадки} 9/9 300 м
[Cu Sc]
-14.8 -19.1 70 -24 -24 1013.9 1012.9
03 20.04 С 6
{9}
20 км позёмок 9/9 300 м
[St]
-14.2 -17.7 75 -24 -23 1014.2 1013.2
06 20.04 С 6
{10}
20 км позёмок 9/9 300 м
[St]
-15.0 -18.4 75 -25 -25 1014.6 1013.6 -14.0 0.0
09 20.04 З 3
{8}
28 км {метель} 9/9 300 м
[Sc]
-16.0 -20.2 70 -23 -23 1015.5 1014.5
12 20.04 СЗ 3
{7}
40 км {ливн. осадки, метель} 6/3 300 м
[Sc Ci fib]
-16.6 -20.8 70 -24 -24 1015.2 1014.2
15 20.04 ЮЗ 1
{6}
20 км {метель} 8/4 300 м
[Sc Ci fib]
-17.9 -21.2 75 -21 -21 1015.2 1014.2
18 20.04 Ю 3
{5}
20 км {метель} 9/4 600 м
[Sc Ci fib]
-16.8 -21.0 70 -24 -23 1014.6 1013.6 -18.2 0.0 58
21 20.04 З 4
{6}
20 км 9/9 300 м
[Sc]
-15.0 -19.2 70 -23 -22 1014.5 1013.5
00 21.04 СЗ 4
{8}
20 км {метель} 6/4 600 м
[Sc Ci fib]
-14.0 -19.1 65 -22 -19 1014.2 1013.2
03 21.04 СЗ 4
{8}
20 км {метель} 9/8 300 м
[Sc Ci fib]
-13.5 -18.7 65 -21 -20 1013.9 1012.9
06 21.04 СЗ 4
{8}
50 км {метель} 10/4 600 м
[Sc Ci fib]
-14.7 -19.8 65 -22 -22 1013.5 1012.5 -13.5
09 21.04 СЗ 2
{5}
9000 м слаб. ливневой снег 10/10 300 м
[Cb cap]
-15.2 -19.4 70 -20 -20 1013.7 1012.7
12 21.04 штиль 0
{5}
24 км {ливн. осадки} 8/5 600 м
[Sc Ci fib]
-18.4 -21.7 75 -18 -18 1013.7 1012.7
15 21.04 Ю 2
{4}
18 км 10/8 300 м
[St Ci fib]
-19.8 -23.1 75 -26 -26 1013.3 1012.3
18 21.04 Ю 1
{3}
50 км 8/4 300 м
[Sc Ci fib]
-20.6 -23.9 75 -24 -23 1013.1 1012.1 -20.6 0.0 58
21 21.04 С 5
{6}
20 км 9/8 600 м
[Cu Sc Ci fib]
-15.4 -19.6 70 -24 -24 1013.0 1012.0
00 22.04 СЗ 6
{9}
20 км позёмок 9/8 600 м
[Cu Sc Ci fib]
-13.3 -18.5 65 -22 -22 1012.0 1011.0
03 22.04 СЗ 7
{9}
20 км позёмок 9/9 600 м
[Cu Sc]
-13.0 -17.3 70 -23 -23 1010.9 1009.9
06 22.04 СЗ 7
{9}
8000 м слаб. ливневой снег {метель} 10/9 300 м
[Cb cap]
-10.4 -14.0 75 -20 -20 1009.7 1008.8 -10.3 0.0
09 22.04 С 4
{9}
9000 м слаб. ливневой снег {метель} 10/10 300 м
[Cb cap]
-10.4 -14.0 75 -17 -17 1008.9 1008.0
12 22.04 С 10-11
{13}
7000 м слаб. ливневой снег {метель} 10/10 300 м
[Cb cap]
-9.2 -12.6 76 -20 -20 1007.5 1006.6
15 22.04 С 10-11
{14}
7000 м слаб. ливневой снег {метель} 10/10 300 м
[Cb cap]
-10.8 -14.4 75 -22 -22 1007.0 1006.1
18 22.04 С 12-13
{16}
3400 м слаб. ливневой снег {метель} 10/10 300 м
[Cb cap]
-11.2 -14.7 75 -23 -23 1006.4 1005.5 -11.2 0.3 57
21 22.04 С 11-14
{17}
2200 м слаб. ливневой снег {метель} 10/10 300 м
[Cb cap]
-10.6 -14.2 75 -22 -22 1006.5 1005.6
00 23.04 С 11-14
{16}
2400 м слаб. ливневой снег {метель} 10/10 300 м
[Cb cap]
-9.3 -11.4 85 -20 -20 1006.4 1005.5
03 23.04 С 12-14
{16}
3600 м слаб. ливневой снег {метель} 10/10 300 м
[Cb cap]
-8.2 -11.4 78 -19 -19 1007.3 1006.4
06 23.04 С 8-10
{15}
9000 м слаб. ливневой снег {метель} 10/10 300 м
[Cb cap]
-7.7 -9.9 84 -17 -17 1009.2 1008.3 -7.4 0.0
09 23.04 С 11-13
{16}
6000 м слаб. ливневой снег {метель} 10/10 300 м
[Cb cap]
-8.9 -11.8 79 -20 -20 1011.0 1010.1
12 23.04 С 9-10
{15}
7000 м слаб. ливневой снег {метель} 10/10 300 м
[Cb cap]
-10.7 -13.5 80 -21 -21 1011.6 1010.7
15 23.04 СЗ 10-11
{15}
17 км сильный позёмок {ливн. осадки} 10/10 300 м
[St]
-11.0 -13.8 80 -22 -22 1011.9 1011.0
18 23.04 СЗ 9-10
{15}
14 км позёмок {ливн. осадки} 10/10 300 м
[St]
-9.1 -11.1 85 -19 -19 1011.9 1011.0 -11.2 0.0 54
21 23.04 СЗ 8
{14}
20 км позёмок 10/10 300 м
[St]
-7.4 -10.0 82 -17 -17 1012.4 1011.5
00 24.04 СЗ 9
{11}
20 км сильный позёмок 10/10 300 м
[St]
-7.2 -9.7 82 -17 -17 1013.1 1012.2
03 24.04 С 6
{11}
20 км позёмок 10/10 300 м
[Cu Sc]
-6.9 -8.9 86 -15 -15 1013.9 1013.0
06 24.04 СЗ 4
{7}
20 км {метель} 10/10 300 м
[Cu Sc]
-6.4 -9.2 80 -13 -13 1014.8 1013.9 -6.4

 

Местоположение метеостанции Уэлен (Чукотка, Россия): широта 66.16 долгота -169.00 высота над уровнем моря 7 м.

В архиве по умолчанию представлена погода в Уэлене за последнюю неделю. Архивные данные за месяц целиком и за предыдущие месяцы, начиная с января 2011 года, Вы можете получить, выбрав интересующий диапазон дат из раскрывающегося списка и нажав кнопку "Ввод!".


*Определитесь, кто Вы:
робот инопланетянин человек

Внимание! Время в таблицах - всемирное. Для получения местного времени необходимо прибавить поправку, которая равна 12 ч.

Смотрите также архив погоды в соседних городах и на ближайших метеорологических станциях:

Погода на Мысе Ванкарем (Чукотка, Россия) (320 км)
Погода в Эгвекиноте (Чукотка, Россия) (448 км)
Погода на Мысе Шмидта (Чукотка, Россия) (520 км)
Погода на Острове Врангеля (Чукотка, Россия) (648 км)

Пояснения к столбцам:

Ветер - указаны скорость ветра в м/с - средняя за 10 мин, порывы в срок и между сроками (в фигурных скобках) и направление, откуда дует ветер: С - северный, СВ - северо-восточный, В - восточный, ЮВ - юго-восточный, Ю - южный, ЮЗ - юго-западный, З - западный, СЗ - северо-западный.
Видимость - горизонтальная дальность видимости в метрах или километрах. При видимости от 1 до 10 км при отсутствии осадков обычно наблюдается дымка, при ухудшении видимости до 1 км и менее - туман. В сухую погоду видимость может ухудшаться дымом, пылью или мглою.
Явления - указаны атмосферные явления, наблюдавшиеся в срок или в последний час перед сроком; фигурными скобками обозначены явления, наблюдавшиеся между сроками (за 1-3 часа до срока); квадратными скобками обозначены град или гололедные отложения с указанием их диаметра в мм.
Облачность - указаны через наклонную черту общая и нижняя облачность в баллах и высота нижней границы облаков в метрах; квадратными скобками обозначены формы облаков: Ci - перистые, Cs - перисто-слоистые, Cc - перисто-кучевые, Ac - высококучевые, As - высокослоистые, Sc - слоисто-кучевые, Ns - слоисто-дождевые, Cu - кучевые, Cb - кучево-дождевые. Подробнее классификацию облаков см. в Атласе облаков (PDF).
T - Температура воздуха - температура, измеренная на высоте 2 м над землей.
Td - Температура точки росы - температура, при понижении до которой содержащийся в воздухе водяной пар достигнет насыщения.
f - Относительная влажность воздуха - влажноcть воздуха, измеренная на высоте 2 м над землей.
Te - Эффективная температура - температура, которую ощущает одетый по сезону человек в тени. Характеристика душности погоды. При расчете учитывается влияние влажности воздуха и скорости ветра на теплоощущения человека.
Tes - Эффективная температура на солнце - температура, которую ощущает человек, с поправкой на солнечный нагрев. Характеристика знойности погоды. Зависит от высоты солнца над горизонтом, облачности и скорости ветра. Ночью, в пасмурную погоду, а также при ветре 12 м/с и более поправка равна нулю.
P - Атмосферное давление - приведенное к уровню моря атмосферное давление.
Po - Атмосферное давление - измеренное на уровне метеостанции атмосферное давление.
Tmin - Минимальная температура - минимум температуры воздуха на высоте 2 м над землей.
Tmax - Максимальная температура - максимум температуры воздуха на высоте 2 м над землей.
R - Количество осадков - Количество выпавших осадков за период времени, мм. При наведении курсора мыши на число - период времени, за который выпало указанное количество осадков.
R24 - Количество осадков - Количество выпавших осадков за 24 часа, мм.
S - Снежный покров - Высота снежного покрова, см. При наведении курсора мыши на число - состояние снежного покрова и степень покрытия местности в баллах.